Location: Little Elm
(33.1626°N, 96.9375°W)
Time: 19:28:28
(UTC+00:00)

Envisat - Pass Details

Date: 25 May 2022
Orbit: 764 x 765 km, 98.2° (Epoch: 25 June)

Event Time Altitude Azimuth Distance (km) Brightness Sun altitude
Rises 10:29:14 0° 21° (NNE) 3,233 7.2 -10.5°
Reaches altitude 10° 10:31:41 10° 28° (NNE) 2,303 6.5 -10.0°
Maximum altitude 10:36:28 42° 99° (E) 1,085 4.3 -9.2°
Drops below altitude 10° 10:41:14 10° 169° (S) 2,289 5.3 -8.3°
Sets 10:43:38 0° 177° (S) 3,211 5.9 -7.9°
